This demonstration page uses our WeatherBlox Daily Observations layout. Learn more.

Left ArrowRight Arrow

53.62937, 11.41316

Hourly Observations for May 11, 2019

Temp ( °F °C ) Dew Point ( °F °C ) Humidity (%) Winds ( mph kmh ) Pressure ( in mb ) Visibility ( mi km ) Precip ( " mm )
6:50 am 06:50 Mostly Sunny 34 1 34 1 100 100 VRB 1 2 29.92 1013 7 11 N/A
7:20 am 07:20 Mostly Sunny 36 2 36 2 100 100 SSW 1 2 29.92 1013 7 11 N/A
7:50 am 07:50 Mostly Sunny 39 4 37 3 93 93 N N/A 29.95 1014 7 11 N/A
8:20 am 08:20 Mostly Sunny 41 5 39 4 93 93 VRB 1 2 29.95 1014 7 11 N/A
8:50 am 08:50 Mostly Sunny 46 8 43 6 87 87 VRB 2 4 29.94 1014 7 11 N/A
9:20 am 09:20 Mostly Sunny 48 9 39 4 71 71 VRB 3 6 29.94 1014 30 48 N/A
9:50 am 09:50 Mostly Sunny 48 9 37 3 66 66 VRB 3 6 29.94 1014 30 48 N/A
10:20 am 10:20 Mostly Sunny 50 10 37 3 62 62 VRB 3 6 29.94 1014 30 48 N/A
10:50 am 10:50 Mostly Sunny 50 10 37 3 62 62 NE 6 9 29.94 1014 30 48 N/A
11:20 am 11:20 Mostly Sunny 50 10 34 1 54 54 N 7 11 29.94 1014 30 48 N/A
11:50 am 11:50 Mostly Sunny 52 11 36 2 54 54 NE 8 13 29.94 1014 30 48 N/A
12:20 pm 12:20 Mostly Sunny 54 12 36 2 51 51 NE 7 11 29.94 1014 7 11 N/A
12:50 pm 12:50 Mostly Sunny 54 12 36 2 51 51 N 7 11 29.94 1014 7 11 N/A
1:20 pm 13:20 Mostly Sunny 54 12 36 2 51 51 NW 8 13 29.94 1014 30 48 N/A
1:50 pm 13:50 Mostly Sunny 55 13 37 3 51 51 VRB 6 9 29.94 1014 7 11 N/A
2:20 pm 14:20 Mostly Sunny 54 12 36 2 51 51 N 7 11 29.97 1015 7 11 N/A
2:50 pm 14:50 Mostly Sunny 55 13 36 2 47 47 NW 7 11 29.97 1015 7 11 N/A
3:20 pm 15:20 Mostly Sunny 57 14 36 2 44 44 NW 7 11 29.97 1015 7 11 N/A
3:50 pm 15:50 Mostly Sunny 55 13 34 1 44 44 N 9 15 29.97 1015 7 11 N/A
4:20 pm 16:20 Mostly Sunny 55 13 34 1 44 44 NNW 10 17 29.97 1015 7 11 N/A
4:50 pm 16:50 Mostly Sunny 55 13 28 -2 36 36 NNW 12 19 30.00 1016 7 11 N/A
5:20 pm 17:20 Mostly Sunny 55 13 27 -3 33 33 NNW 12 19 30.00 1016 7 11 N/A
5:50 pm 17:50 Mostly Sunny 55 13 27 -3 33 33 NNW 14 22 30.03 1017 7 11 N/A
6:20 pm 18:20 Mostly Sunny 55 13 27 -3 33 33 NNW 12 19 30.03 1017 7 11 N/A
6:50 pm 18:50 Mostly Sunny 55 13 28 -2 36 36 N 10 17 30.03 1017 7 11 N/A
7:20 pm 19:20 Mostly Sunny 55 13 28 -2 36 36 N 10 17 30.06 1018 7 11 N/A
7:50 pm 19:50 Mostly Sunny 54 12 32 undefined 44 44 N 8 13 30.06 1018 7 11 N/A
8:20 pm 20:20 Mostly Sunny 54 12 34 1 47 47 N 8 13 30.06 1018 7 11 N/A
8:50 pm 20:50 Mostly Sunny 52 11 34 1 50 50 N 6 9 30.09 1019 7 11 N/A

Powered by AerisWeather